Evans Head Observation History
Time Wind Speed Temp Pressure Rel. Hum Rain
22/08:30am W 4-6 kts 19.9°c 1015.9 hPa 75% 0.0mm
22/08:00am W 4-5 kts 19.1°c 1015.6 hPa 76% 0.0mm
22/07:30am WSW 3-5 kts 19.1°c 1015.2 hPa 73% 0.0mm
22/07:00am W 6 kts 17.6°c 1014.9 hPa 77% 0.0mm
22/06:30am W 5-6 kts 17.1°c 1014.5 hPa 79% 0.0mm
22/06:00am W 6-7 kts 17.3°c 1014.2 hPa 79% 0.0mm
22/05:30am NNW 5-6 kts 15.4°c 1013.9 hPa 90% 0.0mm
22/05:00am N 4-5 kts 15.5°c 1013.8 hPa 90% 0.0mm
22/04:30am NNW 4-5 kts 15.6°c 1013.7 hPa 88% 0.0mm
22/04:00am N 5-6 kts 16.0°c 1013.8 hPa 86% 0.0mm
22/03:30am N 5-8 kts 16.5°c 1013.9 hPa 85% 0.0mm
22/03:00am N 4-5 kts 16.8°c 1014.2 hPa 84% 0.0mm
22/02:30am N 5-7 kts 17.2°c 1014.6 hPa 84% 0.0mm
22/02:00am N 5-6 kts 17.4°c 1015.2 hPa 85% 0.0mm
22/01:30am N 4-5 kts 17.2°c 1015.7 hPa 86% 0.0mm
22/01:00am NNW 4-6 kts 17.0°c 1015.8 hPa 86% 0.0mm
22/12:30am N 4-5 kts 17.0°c 1016.0 hPa 84% 0.0mm
22/12:00am N 4-6 kts 17.1°c 1016.3 hPa 83% 0.0mm
Time Wind Speed Temp Pressure Rel. Hum Rain
21/11:30pm N 5-6 kts 17.3°c 1016.5 hPa 83% 0.0mm
21/11:00pm N 5-7 kts 17.6°c 1016.5 hPa 81% 0.0mm
21/10:30pm N 5 kts 18.3°c 1016.4 hPa 77% 0.0mm
21/10:00pm N 5-7 kts 18.8°c 1016.4 hPa 74% 0.0mm
21/09:30pm N 5-8 kts 18.9°c 1016.1 hPa 73% 0.0mm
21/09:00pm N 6-8 kts 18.9°c 1016.0 hPa 71% 0.0mm
21/08:30pm NNE 6-9 kts 18.7°c 1015.2 hPa 72% 0.0mm
21/08:00pm NNE 5-8 kts 19.0°c 1015.1 hPa 72% 0.0mm
21/07:30pm ENE 8-13 kts 19.6°c 1014.9 hPa 72% 0.0mm
21/07:00pm ENE 8-11 kts 19.9°c 1014.9 hPa 70% 0.0mm
21/06:30pm ENE 7-11 kts 20.2°c 1015.0 hPa 68% 0.0mm
21/06:00pm ENE 8-12 kts 20.1°c 1015.0 hPa 68% 0.0mm
21/05:30pm E 8-11 kts 20.4°c 1014.7 hPa 67% 0.0mm
21/05:00pm E 9-13 kts 20.8°c 1014.6 hPa 66% 0.0mm
21/04:30pm ESE 10-13 kts 20.9°c 1014.5 hPa 63% 0.0mm
21/04:00pm E 10-14 kts 20.8°c 1014.6 hPa 62% 0.0mm
21/03:30pm ESE 11-14 kts 22.6°c 1014.7 hPa 56% 0.0mm
21/03:00pm ESE 10-15 kts 22.4°c 1014.9 hPa 57% 0.0mm
21/02:30pm ESE 12-15 kts 22.5°c 1015.2 hPa 54% 0.0mm
21/02:00pm ESE 12-16 kts 22.8°c 1015.3 hPa 52% 0.0mm
21/01:30pm ESE 11-15 kts 23.1°c 1015.7 hPa 52% 0.0mm
21/01:00pm SE 11-15 kts 22.8°c 1016.0 hPa 52% 0.0mm
21/12:30pm SE 11-15 kts 22.6°c 1016.4 hPa 52% 0.0mm
21/12:00pm SE 10-14 kts 22.8°c 1016.9 hPa 51% 0.0mm
21/11:30am SE 10-13 kts 22.7°c 1017.3 hPa 53% 0.0mm
21/11:00am SE 10-13 kts 22.8°c 1017.5 hPa 53% 0.0mm
21/10:30am SSE 9-12 kts 23.4°c 1017.8 hPa 54% 0.0mm
21/10:00am SSE 11-14 kts 22.9°c 1017.9 hPa 56% 0.0mm
21/09:30am S 9-12 kts 22.5°c 1017.9 hPa 56% 0.0mm
21/09:00am SSW 5-8 kts 21.4°c 1017.9 hPa 59% 0.0mm
21/08:30am WSW 5-7 kts 19.9°c 1017.7 hPa 64% 0.0mm
21/08:00am WSW 5-9 kts 18.6°c 1017.6 hPa 68% 0.0mm
21/07:30am W 5-6 kts 17.5°c 1017.5 hPa 73% 0.0mm
21/07:00am W 6-8 kts 16.0°c 1017.2 hPa 75% 0.0mm
21/06:30am W 7-8 kts 15.8°c 1016.9 hPa 76% 0.0mm
21/06:00am W 7-8 kts 15.2°c 1016.6 hPa 78% 0.0mm
21/05:30am WSW 7-8 kts 15.6°c 1016.3 hPa 76% 0.0mm
21/05:00am W 7-8 kts 15.6°c 1016.3 hPa 77% 0.0mm
21/04:30am W 7-8 kts 15.8°c 1016.2 hPa 77% 0.0mm
21/04:00am WSW 7-8 kts 15.6°c 1016.0 hPa 78% 0.0mm
21/03:30am W 6-7 kts 15.3°c 1015.9 hPa 79% 0.0mm
21/03:00am SW 5-7 kts 15.5°c 1016.0 hPa 78% 0.0mm
21/02:30am SSW 6-7 kts 16.3°c 1016.2 hPa 74% 0.0mm
21/02:00am S 5-8 kts 16.9°c 1016.5 hPa 70% 0.0mm
21/01:30am SSE 7-8 kts 17.0°c 1016.8 hPa 71% 0.0mm
21/01:00am SSE 9-11 kts 17.3°c 1017.0 hPa 69% 0.0mm
21/12:30am SSE 7-10 kts 17.1°c 1017.4 hPa 70% 0.0mm
21/12:00am SE 7-9 kts 17.3°c 1017.7 hPa 67% 0.0mm
Time Wind Speed Temp Pressure Rel. Hum Rain
20/11:30pm SE 8-10 kts 17.5°c 1017.7 hPa 65% 0.0mm
20/11:00pm SSE 8-10 kts 17.4°c 1017.9 hPa 65% 0.0mm
20/10:30pm SSE 8-11 kts 17.6°c 1018.0 hPa 67% 0.0mm
20/10:00pm SE 9-12 kts 18.2°c 1018.1 hPa 64% 0.0mm
20/09:30pm SE 9-12 kts 18.3°c 1018.1 hPa 66% 0.0mm
20/09:00pm SE 10-13 kts 18.9°c 1018.0 hPa 61% 0.0mm
20/08:30pm SE 9-13 kts 18.6°c 1017.7 hPa 62% 0.0mm
20/08:00pm SSE 10-14 kts 18.6°c 1017.4 hPa 65% 0.0mm
20/07:30pm SE 11-15 kts 18.3°c 1017.1 hPa 64% 0.0mm
20/07:00pm SE 11-15 kts 18.5°c 1016.8 hPa 63% 0.0mm
20/06:30pm SSE 11-14 kts 18.6°c 1016.9 hPa 63% 0.0mm
20/06:00pm SSE 9-14 kts 18.9°c 1016.8 hPa 62% 0.0mm
20/05:30pm SE 12-17 kts 20.3°c 1016.4 hPa 59% 0.0mm
20/05:00pm SE 12-17 kts 21.1°c 1016.4 hPa 60% 0.0mm
20/04:30pm SSE 12-16 kts 22.0°c 1016.4 hPa 58% 0.0mm
20/04:00pm SSE 12-17 kts 22.2°c 1016.4 hPa 57% 0.0mm
20/03:30pm SSE 12-17 kts 21.8°c 1016.7 hPa 56% 0.0mm
20/03:00pm SSE 13-18 kts 22.9°c 1016.8 hPa 56% 0.0mm
20/02:30pm SSE 13-16 kts 22.2°c 1016.9 hPa 56% 0.0mm
20/02:00pm SSE 12-15 kts 23.5°c 1017.1 hPa 55% 0.0mm
20/01:30pm SSE 14-18 kts 23.9°c 1017.4 hPa 54% 0.0mm
20/01:00pm SSE 13-19 kts 22.9°c 1017.6 hPa 53% 0.0mm
20/12:30pm SSE 15-19 kts 23.3°c 1017.6 hPa 51% 0.0mm
20/12:00pm SSE 15-19 kts 23.5°c 1017.8 hPa 56% 0.0mm
20/11:30am SSE 13-18 kts 23.8°c 1018.0 hPa 57% 0.0mm
20/11:00am SSE 14-18 kts 22.9°c 1018.3 hPa 59% 0.0mm
20/10:30am S 13-19 kts 22.1°c 1018.3 hPa 62% 0.0mm
20/10:00am S 11-16 kts 21.4°c 1018.2 hPa 66% 0.0mm
20/09:30am S 11-16 kts 20.4°c 1018.2 hPa 66% 0.0mm
20/09:00am S 11-15 kts 20.8°c 1017.9 hPa 67% 1.8mm
20/08:30am SSW 8-13 kts 19.9°c 1017.7 hPa 72% 1.8mm
20/08:00am SW 9-13 kts 17.9°c 1017.4 hPa 77% 1.8mm
20/07:30am SW 9-13 kts 17.2°c 1017.0 hPa 80% 1.8mm
20/07:00am SW 9-14 kts 15.9°c 1016.6 hPa 84% 1.8mm
20/06:30am SW 10-14 kts 15.6°c 1016.3 hPa 86% 1.8mm
20/06:00am SW 10-14 kts 15.7°c 1016.1 hPa 86% 1.8mm
20/05:30am SW 9-13 kts 15.9°c 1015.8 hPa 85% 1.8mm
20/05:00am SW 9-12 kts 16.2°c 1015.5 hPa 85% 1.8mm
20/04:30am SW 9-12 kts 16.1°c 1015.5 hPa 84% 1.8mm
20/04:00am SW 7-12 kts 16.2°c 1015.4 hPa 86% 1.8mm
20/03:30am WSW 7-11 kts 16.5°c 1015.5 hPa 86% 1.8mm
20/03:00am WSW 8-14 kts 16.9°c 1015.4 hPa 84% 1.8mm
20/02:30am SW 8-11 kts 17.1°c 1015.6 hPa 84% 1.8mm
20/02:00am SW 7-13 kts 17.5°c 1015.6 hPa 82% 1.8mm
20/01:30am S 14-20 kts 18.9°c 1015.8 hPa 75% 1.8mm
20/01:00am S 15-21 kts 18.7°c 1015.9 hPa 74% 1.8mm
20/12:30am S 17-22 kts 18.9°c 1016.1 hPa 75% 1.8mm
20/12:00am S 16-24 kts 18.9°c 1016.4 hPa 77% 1.8mm